Plymouth, MA

11:12 AM EST on January 18, 2018 (GMT -0500)
Plymouth Municipal

Weather History for KPYM - October, 2013

Change the Weather History Date:

Tuesday, October 8, 2013

  Actual Average Record
Temperature  
Mean Temperature 58 °F -  
Max Temperature 68 °F 65 °F 84 °F (1990)
Min Temperature 48 °F 41 °F 27 °F (1984)
Degree Days  
Heating Degree Days 7    
Growing Degree Days 8 (Base 50)    
Moisture  
Dew Point 47 °F    
Average Humidity 66    
Maximum Humidity 88    
Minimum Humidity 39    
Precipitation  
Precipitation 0.00 in - - ()
Sea Level Pressure  
Sea Level Pressure 30.14 in    
Wind  
Wind Speed 8 mph (NW)    
Max Wind Speed 14 mph    
Max Gust Speed 23 mph    
Visibility 10 miles    
Events Rain    
Averages and records for this station are not official NWS values.
T = Trace of Precipitation, MM = Missing Value Source: NWS Daily Summary

Daily Weather History Graph

Daily Weather History Graph

Search for Another Location

Airport or City:

Trip Planner

Search our weather history database for the weather conditions in past years. The results will help you decide how hot, cold, wet, or windy it might be!

Date:

Astronomy

Oct. 08, 2013 Rise Set
Actual Time 6:47 AM EDT 6:12 PM EDT
Civil Twilight 6:19 AM EDT 6:40 PM EDT
Nautical Twilight 5:47 AM EDT 7:12 PM EDT
Astronomical Twilight 5:15 AM EDT 7:44 PM EDT
Moon 10:42 AM EDT (10/8) 8:42 PM EDT (10/8)
Length of Visible Light 12h 20m
Length of Day
11h 24m
Waxing Crescent, 16% of the Moon is Illuminated
Oct 8
Waxing Crescent
Oct 11
First Quarter
Oct 18
Full
Oct 26
Last Quarter
Nov 3
New

Hourly Weather History & Observations

Time (EDT) Temp. Dew Point Humidity Pressure Visibility Wind Dir Wind Speed Gust Speed Precip Events Conditions
12:00 AM 68.0 °F 64.4 °F 88% 29.89 in 6.0 mi WSW 6.9 mph - 0.00 in Rain Light Rain
12:10 AM 68.0 °F 64.4 °F 88% 29.90 in 9.0 mi WNW 10.4 mph - 0.00 in Rain Light Rain
12:27 AM 62.6 °F 57.2 °F 82% 29.91 in 10.0 mi WNW 12.7 mph 23.0 mph 0.00 in   Overcast
12:52 AM 62.1 °F 55.0 °F 78% 29.92 in 10.0 mi NW 9.2 mph - 0.00 in   Overcast
1:52 AM 61.0 °F 51.1 °F 70% 29.95 in 10.0 mi WNW 10.4 mph - N/A   Overcast
2:52 AM 61.0 °F 48.9 °F 64% 29.97 in 10.0 mi WNW 9.2 mph - N/A   Overcast
3:52 AM 59.0 °F 46.0 °F 62% 30.00 in 10.0 mi WNW 8.1 mph - N/A   Partly Cloudy
4:52 AM 55.9 °F 45.0 °F 67% 30.02 in 10.0 mi WNW 4.6 mph - N/A   Clear
5:52 AM 55.0 °F 45.0 °F 69% 30.05 in 10.0 mi West 5.8 mph - N/A   Clear
6:52 AM 53.1 °F 46.0 °F 77% 30.09 in 10.0 mi West 5.8 mph - N/A   Clear
7:52 AM 55.0 °F 45.0 °F 69% 30.12 in 10.0 mi WNW 4.6 mph - N/A   Clear
8:52 AM 59.0 °F 45.0 °F 60% 30.15 in 10.0 mi NNW 10.4 mph 18.4 mph N/A   Clear
9:52 AM 61.0 °F 44.1 °F 54% 30.17 in 10.0 mi NW 13.8 mph 18.4 mph N/A   Clear
10:52 AM 63.0 °F 43.0 °F 48% 30.19 in 10.0 mi NW 8.1 mph - N/A   Clear
11:52 AM 64.9 °F 42.1 °F 43% 30.19 in 10.0 mi NNW 10.4 mph - N/A   Clear
12:52 PM 66.9 °F 43.0 °F 42% 30.19 in 10.0 mi NNW 10.4 mph - N/A   Clear
1:52 PM 66.0 °F 42.1 °F 42% 30.19 in 10.0 mi North 10.4 mph - N/A   Clear
2:52 PM 68.0 °F 42.1 °F 39% 30.20 in 10.0 mi North 11.5 mph - N/A   Clear
3:52 PM 66.9 °F 41.0 °F 39% 30.22 in 10.0 mi North 8.1 mph - N/A   Clear
4:52 PM 62.1 °F 45.0 °F 53% 30.24 in 10.0 mi ENE 6.9 mph - N/A   Clear
5:52 PM 59.0 °F 46.9 °F 64% 30.27 in 10.0 mi ENE 4.6 mph - N/A   Clear
6:52 PM 55.0 °F 46.0 °F 72% 30.28 in 10.0 mi ENE 4.6 mph - N/A   Clear
7:52 PM 51.1 °F 46.0 °F 83% 30.30 in 10.0 mi Calm Calm - N/A   Clear
8:52 PM 51.1 °F 46.0 °F 83% 30.32 in 10.0 mi Calm Calm - N/A   Clear
9:52 PM 48.9 °F 45.0 °F 86% 30.33 in 10.0 mi Calm Calm - N/A   Clear
10:52 PM 48.0 °F 44.1 °F 86% 30.35 in 10.0 mi Calm Calm - N/A   Clear
11:52 PM 48.0 °F 44.1 °F 86% 30.35 in 10.0 mi Calm Calm - N/A   Clear